Skip Page Navigation
NASA JPL Caltech
NASA Logo - Jet Propulsion Laboratory + View the NASA Portal
+ Near-Earth Object (NEO) Program
Search JPL
JPL Home Earth Solar System Stars & Galaxies Technology
JPL Solar System Dynamics
BODIES ORBITS EPHEMERIDES TOOLS PHYSICAL DATA DISCOVERY FAQ SITE MAP
JPL Small-Body Database Browser
Search: [ help ]  
(2011 GN44)
Classification: Apollo [NEO, PHA]          SPK-ID: 3562323
Ephemeris | Orbit Diagram | Orbital Elements | Physical Parameters | Close-Approach Data ]

[ hide orbit diagram ]
Orbit Diagram
Note: Make sure you have Java enabled on your browser to see the applet. This applet is provided as a 3D orbit visualization tool. The applet was implemented using 2-body methods, and hence should not be used for determining accurate long-term trajectories (over several years or decades) or planetary encounter circumstances. For accurate long-term ephemerides, please instead use our Horizons system.
Orbit Viewer

Additional Notes: the orbits shown in the applet are color coded. The planets are white lines, and the asteroid/comet is a blue line. The bright white line indicates the portion of the orbit that is above the ecliptic plane, and the darker portion is below the ecliptic plane. Likewise for the asteroid/comet orbit, the light blue indicates the portion above the ecliptic plane, and the dark blue the portion below the ecliptic plane.

Orbit Viewer applet originally written and kindly provided by Osamu Ajiki (AstroArts), and further modified by Ron Baalke (JPL).


Orbital Elements at Epoch 2456400.5 (2013-Apr-18.0) TDB
Reference: JPL 18 (heliocentric ecliptic J2000)
 Element Value Uncertainty (1-sigma)   Units 
e .5995722982808778 1.096e-06  
a 2.243176371635885 4.0237e-06 AU
q .8982299590447971 1.1582e-06 AU
i 55.01699516379556 9.477e-05 deg
node 16.96728268369623 2.5844e-05 deg
peri 319.3803615729157 6.3157e-05 deg
M 156.0809172810949 0.00042364 deg
tp 2455868.464186549738
(2011-Nov-02.96418655)
0.00010754 JED
period 1227.138436770921
3.36
0.0033018
9.04e-06
d
yr
n .2933654339336808 7.8933e-07 deg/d
Q 3.588122784226973 6.4362e-06 AU
  Orbit Determination Parameters
   # obs. used (total)      73  
   data-arc span      716 days (1.96 yr)  
   first obs. used      2011-04-03  
   last obs. used      2013-03-19  
   planetary ephem.      DE405  
   SB-pert. ephem.      SB405-CPV-2  
   condition code      2  
   fit RMS      .60295  
   data source      ORB  
   producer      Otto Matic  
   solution date      2013-Apr-29 12:12:42  

Additional Information
 Earth MOID = .0105706 AU 
 T_jup = 2.922 
[ show covariance matrix ]

Ephemeris | Orbit Diagram | Orbital Elements | Physical Parameters | Close-Approach Data ]

Physical Parameter Table
Parameter Symbol Value Units Sigma Reference Notes
absolute magnitude H 18.322 mag .42512 18 autocmod 2.5c

[ show close-approach data ]
Ephemeris | Orbit Diagram | Orbital Elements | Physical Parameters | Close-Approach Data ]
ABOUT SSD CREDITS/AWARDS PRIVACY/COPYRIGHT GLOSSARY LINKS
FirstGov 2013-May-18 19:41 UT
(server date/time)  
NASA Home Page
Site Manager:   Donald K. Yeomans
Webmaster  Alan B. Chamberlin